Weather History for West Palm Beach, FL

Change the Weather History Date:

Tuesday, March 11, 2014

  Actual Average Record
Temperature  
Mean Temperature 71 °F 70 °F  
Max Temperature 81 °F 78 °F 91 °F (1922)
Min Temperature 60 °F 62 °F 44 °F (1983)
Degree Days  
Heating Degree Days 0 1  
Month to date heating degree days 2 11  
Since 1 July heating degree days 117 216  
Cooling Degree Days 6 6  
Month to date cooling degree days 57 64  
Year to date cooling degree days 403 299  
Growing Degree Days 20 (Base 50)    
Moisture  
Dew Point 61 °F    
Average Humidity 69    
Maximum Humidity 84    
Minimum Humidity 54    
Precipitation  
Precipitation 0.00 in 0.15 in 6.63 in (1921)
Month to date precipitation 0.26 1.52  
Year to date precipitation 11.74 7.47  
Snow  
Snow 0.00 in - - ()
Month to date snowfall 0.0  
Since 1 July snowfall 0.0  
Snow Depth 0.00 in    
Sea Level Pressure  
Sea Level Pressure 29.94 in    
Wind  
Wind Speed 9 mph (SSW)    
Max Wind Speed 21 mph    
Max Gust Speed 25 mph    
Visibility 10 miles    
Events      
T = Trace of Precipitation, MM = Missing Value Source: NWS Daily Summary

Daily Weather History Graph

Daily Weather History Graph

Search for Another Location

Airport:

Trip Planner

Search our weather history database for the weather conditions in past years. The results will help you decide how hot, cold, wet, or windy it might be!

Date:

Astronomy

Mar. 11, 2014 Rise Set
Actual Time 7:34 AM EDT 7:27 PM EDT
Civil Twilight 7:10 AM EDT 7:50 PM EDT
Nautical Twilight 6:44 AM EDT 8:17 PM EDT
Astronomical Twilight 6:17 AM EDT 8:44 PM EDT
Moon 3:21 PM EDT (3/11) 4:06 AM EDT (3/11)
Length of Visible Light 12h 39m
Length of Day
11h 53m
Waxing Gibbous, 78% of the Moon is Illuminated
Mar 11
Waxing Gibbous
Mar 16
Full
Mar 23
Last Quarter
Mar 30
New
Apr 7
First Quarter

Hourly Weather History & Observations

Time (EDT) Temp. Heat Index Dew Point Humidity Pressure Visibility Wind Dir Wind Speed Gust Speed Precip Events Conditions
12:53 AM 69.1 °F - 59.0 °F 70% 30.01 in 10.0 mi West 9.2 mph - N/A   Partly Cloudy
1:53 AM 66.0 °F - 59.0 °F 78% 30.01 in 10.0 mi WSW 6.9 mph - N/A   Scattered Clouds
2:53 AM 64.9 °F - 59.0 °F 81% 29.99 in 10.0 mi West 5.8 mph - N/A   Partly Cloudy
3:53 AM 64.0 °F - 57.9 °F 80% 29.97 in 10.0 mi West 4.6 mph - N/A   Partly Cloudy
4:53 AM 63.0 °F - 57.9 °F 84% 29.96 in 10.0 mi WSW 4.6 mph - N/A   Partly Cloudy
5:53 AM 62.1 °F - 57.0 °F 84% 29.96 in 10.0 mi SSW 3.5 mph - N/A   Partly Cloudy
6:53 AM 62.1 °F - 57.0 °F 84% 29.96 in 10.0 mi Calm Calm - N/A   Partly Cloudy
7:53 AM 60.1 °F - 55.9 °F 86% 29.96 in 10.0 mi NW 3.5 mph - N/A   Scattered Clouds
8:53 AM 66.0 °F - 57.0 °F 73% 29.98 in 10.0 mi West 3.5 mph - N/A   Partly Cloudy
9:53 AM 71.1 °F - 57.9 °F 63% 29.99 in 10.0 mi WSW 3.5 mph - N/A   Partly Cloudy
10:42 AM 73.9 °F - 61.0 °F 64% 29.98 in 10.0 mi WSW 6.9 mph - N/A   Partly Cloudy
10:53 AM 75.0 °F - 61.0 °F 62% 29.98 in 10.0 mi SSW 9.2 mph - N/A   Partly Cloudy
11:53 AM 78.1 °F - 60.1 °F 54% 29.96 in 10.0 mi South 6.9 mph - N/A   Partly Cloudy
12:53 PM 79.0 °F - 61.0 °F 54% 29.95 in 10.0 mi SW 11.5 mph - N/A   Mostly Cloudy
1:53 PM 80.1 °F 81.2 °F 62.1 °F 54% 29.92 in 10.0 mi SE 13.8 mph - N/A   Scattered Clouds
2:53 PM 80.1 °F 81.2 °F 62.1 °F 54% 29.90 in 10.0 mi SE 13.8 mph - N/A   Scattered Clouds
3:53 PM 80.1 °F 81.2 °F 62.1 °F 54% 29.88 in 10.0 mi SSE 17.3 mph - N/A   Scattered Clouds
4:53 PM 81.0 °F 82.2 °F 63.0 °F 54% 29.86 in 10.0 mi SSE 17.3 mph - N/A   Scattered Clouds
5:53 PM 78.1 °F - 63.0 °F 60% 29.86 in 10.0 mi SSE 17.3 mph - N/A   Partly Cloudy
6:53 PM 75.9 °F - 64.0 °F 67% 29.87 in 10.0 mi SSE 17.3 mph - N/A   Partly Cloudy
7:53 PM 75.0 °F - 64.9 °F 71% 29.89 in 10.0 mi SSE 11.5 mph - N/A   Partly Cloudy
8:53 PM 73.9 °F - 64.9 °F 73% 29.90 in 10.0 mi SSE 11.5 mph - N/A   Partly Cloudy
9:53 PM 73.9 °F - 64.9 °F 73% 29.91 in 10.0 mi South 11.5 mph - N/A   Partly Cloudy
10:53 PM 73.0 °F - 64.9 °F 76% 29.92 in 10.0 mi South 8.1 mph - N/A   Clear
11:53 PM 73.0 °F - 64.9 °F 76% 29.90 in 10.0 mi SSW 4.6 mph - N/A   Partly Cloudy